Flag Weather past 2 weeks in Syracuse, New York, U.S.A.

Now
47 °F

Light rain. Overcast.


Feels Like: 42 °F
Forecast: 43 / 50 °F
Wind: 12 mph from Southwest

Location: Syracuse Hancock International Airport

Current Time: Nov 23, 2014 at 2:30:43 AM

Latest Report: Nov 23, 2014 at 1:54 AM


Visibility: 10 mi

Pressure: 30.01 "Hg

Humidity: 80%

Dew point: 41 °F

Location of SyracuseLocation

Historic Weather in Syracuse — Graph

°F

Syracuse temperature yesterday

Maximum temperature yesterday: 46 °F (at 8:54 PM)
Minimum temperature yesterday: 23 °F (at 4:54 AM)
Average temperature yesterday: 36 °F

Past Weeks' High & Low Weather Summary

 TemperatureHumidityPressure
High65 °F (Nov 11, 12:54 PM)100% (Nov 17, 2:54 PM)30.45 "Hg (Nov 17, 2:54 PM)
Low20 °F (Nov 19, 6:54 AM)24% (Nov 22, 10:54 AM)29.48 "Hg (Nov 17, 3:54 PM)
Average37 °F65%30.00 "Hg
* Reported Nov 8 12:54 AM — Nov 23 12:54 AM, Syracuse, Weather by CustomWeather, © 2014

Note: Actual official high and low records may vary slightly from our data, if they occured in-between our weather recording intervals... More about our weather records

Advertising

Syracuse weather history for previous 24 hours

 ConditionsComfort  
Time TempWeatherWind HumidityBarometerVisibility
12:54 AM
Nov 23
46 °FLight rain. Mostly cloudy.14 mph83%30.01 "Hg7 mi
11:54 PM
Nov 22
46 °FLight rain. Overcast.21 mph79%30.01 "Hg8 mi
10:54 PM45 °FLight rain. Overcast.14 mph80%30.00 "Hg6 mi
9:54 PM45 °FLight rain. Overcast.12 mph76%30.01 "Hg5 mi
8:54 PM46 °FLight rain. Overcast.13 mph73%30.01 "Hg10 mi
7:54 PM45 °FOvercast.12 mph76%30.02 "Hg10 mi
6:54 PM44 °FOvercast.12 mph79%30.02 "Hg10 mi
5:54 PM44 °FLight rain. Overcast.12 mph73%30.02 "Hg10 mi
4:54 PM43 °FLight rain. Overcast.10 mph68%30.03 "Hg10 mi
3:54 PM42 °FLight rain. Overcast.7 mph55%30.02 "Hg10 mi
2:54 PM37 °FOvercast.5 mph76%30.03 "Hg10 mi
1:54 PM37 °FLight rain. Mostly cloudy.7 mph70%30.06 "Hg7 mi
12:54 PM40 °FLight rain. Overcast.9 mph38%30.10 "Hg10 mi
11:54 AM40 °FMostly cloudy.7 mph25%30.14 "Hg10 mi
10:54 AM40 °FPartly sunny.12 mph24%30.19 "Hg10 mi
9:54 AM36 °FBroken clouds.12 mph31%30.24 "Hg10 mi
8:54 AM31 °FPartly sunny.10 mph40%30.27 "Hg10 mi
7:54 AM27 °FPartly sunny.6 mph51%30.29 "Hg10 mi
6:54 AM26 °FPassing clouds.6 mph52%30.31 "Hg10 mi
5:54 AM26 °FPassing clouds.9 mph52%30.34 "Hg10 mi
4:54 AM23 °FPassing clouds.7 mph63%30.35 "Hg10 mi
3:54 AM24 °FPartly cloudy.7 mph62%30.37 "Hg10 mi
2:54 AM25 °FOvercast.8 mph63%30.39 "Hg10 mi
Weather by CustomWeather, © 2014

See weather overviewHow to use our weather pages